www.pogodaiklimat.ru

Погода и климат >> Архив погоды >> Мексика >> Tuxtla Gutierrez


ПОГОДА в Tuxtla Gutierrez

  • Прогноз погоды в Tuxtla Gutierrez
  • Монитор погоды в Tuxtla Gutierrez
  • Климат города

АРХИВ ПОГОДЫ в Tuxtla Gutierrez

Время (UTC), дата Ветер
(напр.,м/с)
 
Видим.   Явления Облачность Т
(С)
Тd
(С)
f
(%)
Тe
(С)
Тes
(С)
Комфортность P
(гПа)
Po
(гПа)
Тmin
(С)
Tmax
(С)
R
(мм)
R24
(мм)
S
(см)
09 13.06 штиль 0 15 км 10/3 420 м
[Cu hum Ac As Cs]
+24.0 +22.3 90 +31 +31 очень
душно
1010.6 947.3
12 13.06 СЗ 1 15 км слабый дождь {морось} 10/1 300 м
[Cu hum Ac As Cs]
+20.8 +19.9 95 +27 +27 душно 1012.3 948.7 11
15 13.06 штиль 0 1500 м {морось} 10/3 270 м
[St As op]
+22.4 +20.5 89 +29 +31 очень
душно
1013.1 949.3 3
18 13.06 штиль 0 15 км 10/3 270 м
[Frnb As op]
+24.8 +21.6 82 +32 +36 очень
душно
1013.4 949.6 +20.2 +25.7
21 13.06 штиль 0 15 км 8/3 660 м
[Cb calv As op]
+29.0 +20.3 59 +35 +41 очень
душно
1010.1 946.9
00 14.06 З 1 15 км 10/3 1000 м
[Sc diur, vesp Ac trans]
+26.7 +21.2 72 +34 +34 очень
душно
1009.2 946.3 +20.2 +30.3
03 14.06 штиль 0 15 км 3/0
[Ac trans]
+25.2 +21.0 78 +32 +32 очень
душно
1010.9 948.0
09 14.06 штиль 0 15 км 3/0
[Ac trans]
+22.8 +19.0 79 +29 +29 очень
душно
1001.0 947.9
12 14.06 штиль 0 15 км 8/3 1140 м
[Sc diur, vesp Ac trans]
+22.4 +20.7 90 +29 +29 очень
душно
1012.1 948.6 +22.0 +30.3
15 14.06 З 1 15 км 6/4 750 м
[Cu hum Ac trans]
+24.9 +21.1 79 +31 +37 очень
душно
1013.0 949.3
18 14.06 З 1 15 км 6/4 750 м
[Frnb As op]
+29.8 +21.9 63 +38 +50 очень
душно
1011.9 948.5 +22.0 +30.4
21 14.06 З 1 15 км слабая морось 10/3 700 м
[Frnb As op]
+24.2 +21.5 85 +31 +33 очень
душно
1010.6 947.5 2
00 15.06 З 1 15 км {морось} 8/0 2000 м
[As op]
+23.6 +21.2 86 +30 +30 очень
душно
1010.3 947.3 2
03 15.06 штиль 0 15 км {морось} 9/0 2000 м
[As op]
+23.1 +21.7 92 +31 +31 очень
душно
1011.7 948.6 0.2
06 15.06 штиль 0 15 км {морось} 9/4 600 м
[Frnb As op]
+22.7 +21.4 92 +30 +30 очень
душно
1012.8 949.3 0.2
12 15.06 В 1 10 км 10/8 450 м
[Frnb As op]
+22.2 +21.2 94 +29 +29 очень
душно
1013.3 947.8 +21.9 +31.5
15 15.06 В 1 12 км 9/4 400 м
[St Ac trans Cs]
+24.7 +21.5 82 +31 +36 очень
душно
1012.7 948.9
18 15.06 СВ 2 15 км 9/4 700 м
[Cu med, cong Ac trans Cs]
+28.6 +21.9 67 +37 +45 очень
душно
1011.0 947.5 +21.9 +29.1
21 15.06 В 1 15 км слабая морось 9/9 400 м
[Cb calv]
+25.1 +22.1 83 +32 +34 очень
душно
1009.3 946.1 1
00 16.06 ЮВ 1 15 км 8/8 300 м
[Sc diur, vesp]
+28.7 +21.2 64 +36 +36 очень
душно
1007.8 945.1 +21.9 +29.9
03 16.06 Ю 1 15 км 4/4 630 м
[Sc diur, vesp]
+25.4 +21.5 79 +32 +32 очень
душно
1009.7 946.9
06 16.06 З 1 15 км 4/4 700 м
[Cu Sc]
+24.2 +21.0 82 +30 +30 очень
душно
1010.8 947.8 +21.9 +29.9
09 16.06 В 1 15 км 4/4 400 м
[Cu hum]
+23.6 +21.5 88 +30 +30 очень
душно
1009.3 946.3
12 16.06 В 1 10 км 8/8 300 м
[St]
+23.1 +21.4 90 +31 +31 очень
душно
1009.2 946.0 +23.0 +29.9
15 16.06 штиль 0 15 км 10/4 800 м
[Frnb As op]
+24.8 +22.3 86 +32 +34 очень
душно
1011.1 947.6
18 16.06 СВ 1 15 км в посл. час переохл. осадки {дождь} 10/4 600 м
[Cu hum As op]
+26.8 +22.6 78 +35 +38 очень
душно
1009.9 946.6 0.4
21 16.06 Ю 2 15 км 8/3 800 м
[Cu med, cong Ac As]
+29.0 +22.4 68 +38 +43 очень
душно
1007.8 944.8
00 17.06 ЮЗ 1 15 км 9/0
[Cs]
+29.4 +21.5 63 +37 +38 очень
душно
1006.8 944.2 +23.0 +30.6
03 17.06 З 1 15 км 4/0 2000 м
[Ac trans]
+25.4 +21.5 79 +32 +32 очень
душно
1009.4 946.8
06 17.06 Ю 1 15 км 8/8 1200 м
[Sc diur, vesp]
+24.4 +21.0 81 +31 +31 очень
душно
1010.6 947.8 +23.0 +30.6
09 17.06 В 1 15 км 8/8 1200 м
[Sc diur, vesp]
+23.8 +20.8 83 +30 +30 очень
душно
1006.2 947.5
12 17.06 ЮЗ 1 15 км в посл. час переохл. осадки {дождь} 10/0 2000 м
[Ac As]
+22.6 +21.1 91 +30 +30 очень
душно
1011.3 947.9 0.2
15 17.06 ЮВ 1 15 км слабая морось 10/5 270 м
[St Ac As]
+23.8 +21.6 87 +30 +32 очень
душно
1013.9 950.2 0.1
18 17.06 В 1 15 км слабая морось 9/4 600 м
[St Ac As]
+26.2 +21.2 74 +33 +40 очень
душно
1013.2 949.6 0.3
21 17.06 ЮВ 1 15 км 8/3 720 м
[St Ac As]
+27.2 +21.3 70 +34 +40 очень
душно
1011.8 948.4
00 18.06 СЗ 1 15 км 8/3 300 м
[St As trans]
+25.8 +21.3 76 +33 +33 очень
душно
1010.5 947.4 +22.0 +28.2
03 18.06 З 1 15 км 4/3 300 м
[St Ac und]
+24.2 +21.7 86 +31 +31 очень
душно
1012.1 949.0
06 18.06 штиль 0 15 км 5/1 240 м
[St Ac und]
+23.2 +21.2 89 +31 +31 очень
душно
1012.9 949.6 +22.0 +28.2
12 18.06 штиль 0 15 км 10/4 180 м
[St Ac trans]
+22.2 +20.8 92 +29 +29 очень
душно
1012.5 948.8 +21.4 +28.2
15 18.06 С 27 15 км 9/0
[Ac As Cs]
+24.7 +21.1 80 +31 +31 очень
душно
1013.6 949.7
18 18.06 СЗ 19 15 км 10/0
[Ac As Cs]
+28.0 +21.3 67 +35 +51 опасность
солнечного
удара
1012.7 949.2 +21.4 +28.2
21 18.06 СЗ 1 15 км 6/1 600 м
[Cu hum Ac As Cs]
+30.8 +21.4 57 +39 +49 очень
душно
1010.0 947.0
00 19.06 СЗ 1 15 км 10/0
[Ac trans Cc]
+30.3 +21.9 61 +39 +39 очень
душно
1009.6 947.0 +21.4 +32.7
03 19.06 СЗ 1 15 км 5/0
[Ac trans]
+26.6 +21.9 75 +34 +34 очень
душно
1006.9 949.6
06 19.06 СЗ 1 15 км 4/0
[Ac As Cc]
+24.4 +19.8 76 +30 +30 очень
душно
1012.9 950.1 +21.4 +32.7
09 19.06 СЗ 1 15 км 10/0
[Ac As Cs]
+23.1 +19.3 79 +29 +29 очень
душно
1011.8 948.8
12 19.06 СЗ 1 15 км 5/0
[Ac trans]
+22.5 +20.2 87 +29 +29 очень
душно
1012.1 948.7 +22.4 +32.7
15 19.06 Ю 1 15 км 8/0
[Ac trans]
+26.8 +20.3 68 +33 +40 очень
душно
1012.5 949.0
18 19.06 штиль 0 15 км 8/0
[Ac trans]
+29.7 +22.2 64 +39 +54 опасность
солнечного
удара
1012.3 949.0 +22.4 +30.2
21 19.06 Ю 1 15 км 5/5 1140 м
[Sc diur, vesp]
+33.4 +22.3 52 +42 +50 опасность
перегрева
1006.9 945.3
00 20.06 З 1 15 км {морось} 10/6 600 м
[Cu med, cong]
+27.7 +23.1 76 +37 +37 очень
душно
1008.3 946.0 1
03 20.06 штиль 0 15 км 4/0
[Ac trans]
+26.2 +21.1 74 +33 +33 очень
душно
1010.0 947.7
06 20.06 штиль 0 15 км 3/0
[Ac trans]
+25.4 +20.9 76 +32 +32 очень
душно
1010.8 948.3 +22.4 +34.0

 

Местоположение метеостанции Tuxtla Gutierrez (Мексика): широта 16.75 долгота -93.13 высота над уровнем моря 576 м.

В архиве по умолчанию представлена погода в Tuxtla Gutierrez за последнюю неделю. Архивные данные за месяц целиком и за предыдущие месяцы, начиная с января 2011 года, Вы можете получить, выбрав интересующий диапазон дат из раскрывающегося списка и нажав кнопку "Ввод!".


*Определитесь, кто Вы:
робот инопланетянин человек

Внимание! Время в таблицах - всемирное. Для получения местного времени необходимо прибавить поправку, которая в Tuxtla Gutierrez равна -6 ч.

Смотрите также архив погоды в соседних городах и на ближайших метеорологических станциях:

Погода в Sn. Cristobal Las Casas (Мексика) (53 км)
Погода в Arriaga (Мексика) (100 км)
Погода в Comitan (Мексика) (120 км)
Погода в Villahermosa (Мексика) (138 км)
Погода в Coatzacoalcos (Мексика) (205 км)
Погода в Tapachula City (Мексика) (224 км)
Погода в Salina Cruz (Мексика) (228 км)
Погода в Huehuetenango (Гватемала) (239 км)
Погода в Flores (Гватемала) (347 км)
Погода в Guatemala (Гватемала) (370 км)

Пояснения к столбцам:

Ветер - указаны скорость ветра в м/с - средняя за 10 мин, порывы в срок и между сроками (в фигурных скобках) и направление, откуда дует ветер: С - северный, СВ - северо-восточный, В - восточный, ЮВ - юго-восточный, Ю - южный, ЮЗ - юго-западный, З - западный, СЗ - северо-западный.
Видимость - горизонтальная дальность видимости в метрах или километрах. При видимости от 1 до 10 км при отсутствии осадков обычно наблюдается дымка, при ухудшении видимости до 1 км и менее - туман. В сухую погоду видимость может ухудшаться дымом, пылью или мглою.
Явления - указаны атмосферные явления, наблюдавшиеся в срок или в последний час перед сроком; фигурными скобками обозначены явления, наблюдавшиеся между сроками (за 1-3 часа до срока); квадратными скобками обозначены град или гололедные отложения с указанием их диаметра в мм.
Облачность - указаны через наклонную черту общая и нижняя облачность в баллах и высота нижней границы облаков в метрах; квадратными скобками обозначены формы облаков: Ci - перистые, Cs - перисто-слоистые, Cc - перисто-кучевые, Ac - высококучевые, As - высокослоистые, Sc - слоисто-кучевые, Ns - слоисто-дождевые, Cu - кучевые, Cb - кучево-дождевые. Подробнее классификацию облаков см. в Атласе облаков (PDF).
T - Температура воздуха - температура, измеренная на высоте 2 м над землей.
Td - Температура точки росы - температура, при понижении до которой содержащийся в воздухе водяной пар достигнет насыщения.
f - Относительная влажность воздуха - влажноcть воздуха, измеренная на высоте 2 м над землей.
Te - Эффективная температура - температура, которую ощущает одетый по сезону человек в тени. Характеристика душности погоды. При расчете учитывается влияние влажности воздуха и скорости ветра на теплоощущения человека.
Tes - Эффективная температура на солнце - температура, которую ощущает человек, с поправкой на солнечный нагрев. Характеристика знойности погоды. Зависит от высоты солнца над горизонтом, облачности и скорости ветра. Ночью, в пасмурную погоду, а также при ветре 12 м/с и более поправка равна нулю.
P - Атмосферное давление - приведенное к уровню моря атмосферное давление.
Po - Атмосферное давление - измеренное на уровне метеостанции атмосферное давление.
Tmin - Минимальная температура - минимум температуры воздуха на высоте 2 м над землей.
Tmax - Максимальная температура - максимум температуры воздуха на высоте 2 м над землей.
R - Количество осадков - Количество выпавших осадков за период времени, мм. При наведении курсора мыши на число - период времени, за который выпало указанное количество осадков.
R24 - Количество осадков - Количество выпавших осадков за 24 часа, мм.
S - Снежный покров - Высота снежного покрова, см. При наведении курсора мыши на число - состояние снежного покрова и степень покрытия местности в баллах.